Location: Gorze? G�rny
(49.8500°N, 19.5000°E)
Time: 05:03:43
(UTC+00:00)

ERS-1 Rocket - Pass Details

Date: 13 May 2021
Orbit: 753 x 757 km, 98.4° (Epoch: 20 June)

Event Time Altitude Azimuth Distance (km) Brightness Sun altitude
Exits shadow 19:09:59 - 124° (SE) 2,354 4.9 -7.6°
Reaches altitude 10° 19:10:12 10° 123° (ESE) 2,280 4.8 -7.6°
Maximum altitude 19:14:32 30° 63° (ENE) 1,327 4.1 -8.1°
Drops below altitude 10° 19:18:54 10° 3° (N) 2,296 6.1 -8.6°
Sets 19:21:26 0° 353° (N) 3,226 7.1 -8.9°
